• In Hungary
  • List of Countries
  • For 7 days
  • Water Temperature
  • Satellite Maps
  • Weather Map
  • News
  • Weather Widgets
  • user-avatar
    Login

    Hourly Weather Stal'ne

    Today, 18 June, Monday

    Time Temperature Precipitation Wind Pressure Humidity
    00:00 +19°C° 0 mm 4 mps 739 mmHg 85%
    01:00 +19°C° 0 mm 4 mps 739 mmHg 86%
    02:00 +18°C° 0 mm 3 mps 739 mmHg 87%
    03:00 +18°C° 0 mm 4 mps 739 mmHg 87%
    04:00 +19°C° 0 mm 4 mps 739 mmHg 87%
    05:00 +19°C° 0 mm 4 mps 739 mmHg 87%
    06:00 +20°C° 0 mm 5 mps 739 mmHg 77%
    07:00 +22°C° 0 mm 5 mps 739 mmHg 67%
    08:00 +24°C° 0 mm 6 mps 740 mmHg 57%
    09:00 +24°C° 0 mm 6 mps 740 mmHg 54%
    10:00 +26°C° 0 mm 6 mps 740 mmHg 52%
    11:00 +26°C° 0 mm 7 mps 740 mmHg 49%
    12:00 +27°C° 0 mm 7 mps 740 mmHg 48%
    13:00 +27°C° 0 mm 7 mps 740 mmHg 46%
    14:00 +28°C° 0 mm 7 mps 740 mmHg 45%
    15:00 +27°C° 0 mm 7 mps 740 mmHg 47%
    16:00 +26°C° 0 mm 6 mps 740 mmHg 48%
    17:00 +26°C° 0 mm 6 mps 740 mmHg 50%
    18:00 +23°C° 0 mm 6 mps 740 mmHg 55%
    19:00 +22°C° 0 mm 5 mps 740 mmHg 60%
    20:00 +20°C° 0 mm 5 mps 740 mmHg 65%
    21:00 +20°C° 0 mm 4 mps 740 mmHg 68%
    22:00 +20°C° 0 mm 4 mps 741 mmHg 71%
    23:00 +19°C° 0 mm 4 mps 741 mmHg 73%

    Tomorrow, 19 June, Tuesday

    Time Temperature Precipitation Wind Pressure Humidity
    00:00 +19°C° 0 mm 4 mps 741 mmHg 74%
    01:00 +19°C° 0 mm 4 mps 741 mmHg 75%
    02:00 +18°C° 0 mm 4 mps 741 mmHg 76%
    03:00 +18°C° 0 mm 4 mps 741 mmHg 77%
    04:00 +19°C° 0 mm 5 mps 742 mmHg 77%
    05:00 +19°C° 0 mm 5 mps 742 mmHg 77%
    06:00 +21°C° 0 mm 5 mps 742 mmHg 68%
    07:00 +23°C° 0 mm 6 mps 742 mmHg 58%
    08:00 +26°C° 0 mm 6 mps 743 mmHg 48%
    09:00 +27°C° 0 mm 6 mps 743 mmHg 44%
    10:00 +28°C° 0 mm 6 mps 743 mmHg 40%
    11:00 +29°C° 0 mm 7 mps 743 mmHg 36%
    12:00 +29°C° 0 mm 6 mps 743 mmHg 36%
    13:00 +30°C° 0 mm 6 mps 743 mmHg 35%
    14:00 +30°C° 0 mm 6 mps 743 mmHg 35%
    15:00 +29°C° 0 mm 6 mps 743 mmHg 36%
    16:00 +29°C° 0 mm 6 mps 743 mmHg 37%
    17:00 +28°C° 0 mm 5 mps 743 mmHg 38%
    18:00 +26°C° 0 mm 5 mps 743 mmHg 43%
    19:00 +23°C° 0 mm 4 mps 743 mmHg 48%
    20:00 +21°C° 0 mm 4 mps 744 mmHg 53%
    21:00 +20°C° 0 mm 4 mps 744 mmHg 53%
    22:00 +20°C° 0 mm 4 mps 744 mmHg 53%
    23:00 +20°C° 0 mm 4 mps 744 mmHg 53%

    Day after tomorrow, 20 June, Wednesday

    Time Temperature Precipitation Wind Pressure Humidity
    00:00 +19°C° 0 mm 4 mps 744 mmHg 54%
    01:00 +19°C° 0 mm 4 mps 744 mmHg 56%
    02:00 +19°C° 0 mm 4 mps 744 mmHg 57%
    03:00 +19°C° 0 mm 4 mps 744 mmHg 59%
    04:00 +19°C° 0 mm 4 mps 745 mmHg 62%
    05:00 +19°C° 0 mm 4 mps 745 mmHg 64%
    06:00 +22°C° 0 mm 4 mps 745 mmHg 58%
    07:00 +25°C° 0 mm 4 mps 745 mmHg 53%
    08:00 +28°C° 0 mm 4 mps 746 mmHg 47%
    09:00 +29°C° 0 mm 5 mps 746 mmHg 43%
    10:00 +30°C° 0 mm 5 mps 746 mmHg 39%
    11:00 +32°C° 0 mm 5 mps 746 mmHg 35%
    12:00 +32°C° 0 mm 5 mps 746 mmHg 35%
    13:00 +32°C° 0 mm 5 mps 746 mmHg 35%
    14:00 +32°C° 0 mm 4 mps 746 mmHg 35%
    15:00 +32°C° 0 mm 4 mps 745 mmHg 36%
    16:00 +30°C° 0 mm 4 mps 745 mmHg 38%
    17:00 +29°C° 0 mm 4 mps 745 mmHg 39%
    18:00 +27°C° 0 mm 4 mps 745 mmHg 44%
    19:00 +25°C° 0 mm 3 mps 745 mmHg 49%
    20:00 +22°C° 0 mm 3 mps 745 mmHg 54%
    21:00 +22°C° 0 mm 3 mps 745 mmHg 55%
    22:00 +21°C° 0 mm 3 mps 745 mmHg 56%
    23:00 +21°C° 0 mm 3 mps 745 mmHg 57%

    21 June, Thursday

    Time Temperature Precipitation Wind Pressure Humidity
    00:00 +21°C° 0 mm 3 mps 745 mmHg 57%
    01:00 +20°C° 0 mm 3 mps 745 mmHg 57%
    02:00 +20°C° 0 mm 3 mps 744 mmHg 56%
    03:00 +20°C° 0 mm 3 mps 744 mmHg 57%
    04:00 +20°C° 0 mm 3 mps 744 mmHg 59%
    05:00 +20°C° 0 mm 3 mps 744 mmHg 60%
    06:00 +24°C° 0 mm 3 mps 744 mmHg 55%
    07:00 +26°C° 0 mm 4 mps 744 mmHg 50%
    08:00 +28°C° 0 mm 4 mps 744 mmHg 45%
    09:00 +30°C° 0 mm 4 mps 744 mmHg 42%
    10:00 +32°C° 0 mm 4 mps 744 mmHg 38%
    11:00 +33°C° 0 mm 3 mps 744 mmHg 34%
    12:00 +33°C° 0 mm 3 mps 744 mmHg 35%
    13:00 +33°C° 0 mm 3 mps 743 mmHg 35%
    14:00 +33°C° 0 mm 3 mps 743 mmHg 35%
    15:00 +31°C° 0 mm 3 mps 743 mmHg 39%
    16:00 +30°C° 0 mm 3 mps 743 mmHg 43%
    17:00 +29°C° 0 mm 2 mps 742 mmHg 46%
    18:00 +27°C° 0 mm 2 mps 742 mmHg 49%
    19:00 +26°C° 0 mm 2 mps 742 mmHg 53%
    20:00 +24°C° 0 mm 2 mps 742 mmHg 56%
    21:00 +24°C° 0.3 mm 2 mps 742 mmHg 58%
    22:00 +22°C° 0.3 mm 3 mps 742 mmHg 60%
    23:00 +21°C° 0.3 mm 3 mps 741 mmHg 62%

    22 June, Friday

    Time Temperature Precipitation Wind Pressure Humidity
    00:00 +21°C° 0.2 mm 2 mps 741 mmHg 62%
    01:00 +21°C° 0.2 mm 2 mps 741 mmHg 62%
    02:00 +21°C° 0.2 mm 2 mps 741 mmHg 62%
    03:00 +21°C° 0.2 mm 2 mps 740 mmHg 63%
    04:00 +21°C° 0.2 mm 2 mps 740 mmHg 64%
    05:00 +21°C° 0.2 mm 2 mps 740 mmHg 65%
    06:00 +24°C° 0.2 mm 2 mps 740 mmHg 60%
    07:00 +26°C° 0.2 mm 2 mps 740 mmHg 54%
    08:00 +28°C° 0.2 mm 2 mps 740 mmHg 49%
    09:00 +29°C° 0 mm 2 mps 740 mmHg 45%
    10:00 +30°C° 0 mm 2 mps 740 mmHg 42%
    11:00 +32°C° 0 mm 2 mps 740 mmHg 38%
    12:00 +33°C° 0 mm 3 mps 739 mmHg 39%
    13:00 +31°C° 0 mm 3 mps 739 mmHg 41%
    14:00 +32°C° 0 mm 4 mps 739 mmHg 42%
    15:00 +30°C° 0 mm 4 mps 739 mmHg 46%
    16:00 +29°C° 0 mm 4 mps 739 mmHg 49%
    17:00 +28°C° 0 mm 3 mps 738 mmHg 53%
    18:00 +27°C° 0.1 mm 3 mps 739 mmHg 58%
    19:00 +26°C° 0.1 mm 3 mps 739 mmHg 63%
    20:00 +24°C° 0.1 mm 3 mps 739 mmHg 68%
    21:00 +24°C° 0.1 mm 3 mps 739 mmHg 71%
    22:00 +22°C° 0.1 mm 3 mps 739 mmHg 73%
    23:00 +23°C° 0.1 mm 2 mps 738 mmHg 76%

    23 June, Saturday

    Time Temperature Precipitation Wind Pressure Humidity
    00:00 +21°C° 0 mm 2 mps 739 mmHg 77%
    01:00 +21°C° 0 mm 2 mps 739 mmHg 79%
    02:00 +21°C° 0 mm 2 mps 739 mmHg 81%
    03:00 +21°C° 0.2 mm 3 mps 739 mmHg 82%
    04:00 +21°C° 0.2 mm 3 mps 739 mmHg 83%
    05:00 +21°C° 0.2 mm 3 mps 739 mmHg 84%
    06:00 +24°C° 0.1 mm 3 mps 739 mmHg 75%
    07:00 +26°C° 0.1 mm 3 mps 739 mmHg 66%
    08:00 +27°C° 0.1 mm 3 mps 740 mmHg 58%
    09:00 +28°C° 0.2 mm 4 mps 740 mmHg 55%
    10:00 +29°C° 0.2 mm 5 mps 740 mmHg 51%
    11:00 +30°C° 0.2 mm 5 mps 740 mmHg 48%
    12:00 +30°C° 0.4 mm 5 mps 740 mmHg 51%
    13:00 +29°C° 0.4 mm 5 mps 740 mmHg 55%
    14:00 +28°C° 0.4 mm 5 mps 740 mmHg 58%
    15:00 +28°C° 0.3 mm 5 mps 740 mmHg 59%
    16:00 +28°C° 0.3 mm 5 mps 740 mmHg 60%
    17:00 +28°C° 0.3 mm 4 mps 740 mmHg 61%
    18:00 +26°C° 0.2 mm 4 mps 740 mmHg 67%
    19:00 +25°C° 0.2 mm 4 mps 741 mmHg 74%
    20:00 +24°C° 0.2 mm 3 mps 741 mmHg 80%
    21:00 +22°C° 0.1 mm 4 mps 741 mmHg 83%
    22:00 +21°C° 0.1 mm 4 mps 741 mmHg 86%
    23:00 +21°C° 0.1 mm 4 mps 742 mmHg 90%
    Show more